CPA881 KLAX-VHHH

Flight info

Callsign CPA881
Flight time N/A
Altitude 34000
Route SUMMR2 RIZIN DCT MQO DCT AUDIA DCT 35N130W 36N140W 35N150W 33N160W 30N170W 29N180E/N0493F360 27N170E 26N160E 24N150E/N0491F380 23N140E DCT TUNTO DCT IGURU/N0487F400 G581 ELATO V522 ABBEY
Aircraft A35K/H-SDE2E3GHIJ1J3J4J5LM1ORWXY/LB1D1

Departure

Time 2026-04-23 22:34
Airport Los Angeles International Airport (KLAX)

Arrival

Time N/A
Airport Hong Kong International Airport (VHHH)
Time Latitude Longitude Altitude Speed Heading
2026-04-23 22:11 33.94177 -118.41095 117 ft 0 kts 83°
2026-04-23 22:23 33.94177 -118.41096 98 ft 2 kts 83°
2026-04-23 22:23 33.94174 -118.41126 97 ft 4 kts 83°
2026-04-23 22:23 33.94171 -118.41158 96 ft 4 kts 83°
2026-04-23 22:24 33.94167 -118.41183 100 ft 4 kts 60°
2026-04-23 22:24 33.94150 -118.41201 97 ft 4 kts
2026-04-23 22:24 33.94125 -118.41199 99 ft 4 kts 353°
2026-04-23 22:24 33.94101 -118.41195 97 ft 1 kts 353°
2026-04-23 22:27 33.94108 -118.41196 97 ft 3 kts 353°
2026-04-23 22:28 33.94152 -118.41203 98 ft 9 kts 353°
2026-04-23 22:28 33.94219 -118.41214 99 ft 10 kts 353°
2026-04-23 22:28 33.94289 -118.41224 101 ft 10 kts 353°
2026-04-23 22:28 33.94364 -118.41236 100 ft 11 kts 353°
2026-04-23 22:29 33.94441 -118.41247 100 ft 11 kts 353°
2026-04-23 22:29 33.94520 -118.41259 99 ft 12 kts 353°
2026-04-23 22:29 33.94601 -118.41270 100 ft 12 kts 353°
2026-04-23 22:29 33.94683 -118.41283 101 ft 12 kts 353°
2026-04-23 22:30 33.94763 -118.41289 100 ft 11 kts 11°
2026-04-23 22:30 33.94798 -118.41228 103 ft 9 kts 82°
2026-04-23 22:30 33.94808 -118.41134 103 ft 13 kts 83°
2026-04-23 22:30 33.94821 -118.41004 103 ft 18 kts 83°
2026-04-23 22:31 33.94838 -118.40838 101 ft 21 kts 83°
2026-04-23 22:31 33.94856 -118.40664 100 ft 21 kts 83°
2026-04-23 22:31 33.94875 -118.40487 103 ft 22 kts 83°
2026-04-23 22:31 33.94892 -118.40315 101 ft 18 kts 83°
2026-04-23 22:32 33.94907 -118.40167 102 ft 17 kts 83°
2026-04-23 22:32 33.94920 -118.40042 102 ft 13 kts 83°
2026-04-23 22:32 33.94937 -118.39946 100 ft 12 kts 63°
2026-04-23 22:32 33.95004 -118.39914 99 ft 11 kts 351°
2026-04-23 22:33 33.95042 -118.39955 102 ft 6 kts 276°
2026-04-23 22:33 33.95040 -118.39972 103 ft 0 kts 262°
2026-04-23 22:33 33.95036 -118.40013 102 ft 25 kts 262°
2026-04-23 22:33 33.94985 -118.40511 102 ft 96 kts 263°
2026-04-23 22:34 33.94875 -118.41587 105 ft 161 kts 263°
2026-04-23 22:34 33.94726 -118.43043 537 ft 183 kts 262°
2026-04-23 22:34 33.94544 -118.44536 1542 ft 180 kts 260°
2026-04-23 22:34 33.94386 -118.46033 2157 ft 175 kts 263°
2026-04-23 22:35 33.94270 -118.47531 2427 ft 185 kts 265°
2026-04-23 22:35 33.94222 -118.49145 2594 ft 199 kts 270°
2026-04-23 22:35 33.94215 -118.50864 2804 ft 212 kts 270°
2026-04-23 22:35 33.94172 -118.52694 3038 ft 225 kts 266°
2026-04-23 22:36 33.94027 -118.54648 3194 ft 243 kts 264°
2026-04-23 22:36 33.93831 -118.56746 3374 ft 260 kts 264°
2026-04-23 22:36 33.93629 -118.58951 3725 ft 268 kts 264°
2026-04-23 22:36 33.93439 -118.61189 4249 ft 270 kts 265°
2026-04-23 22:37 33.93250 -118.63470 4713 ft 277 kts 265°
2026-04-23 22:37 33.93067 -118.65781 5251 ft 278 kts 266°
2026-04-23 22:37 33.92882 -118.68104 5805 ft 281 kts 266°
2026-04-23 22:37 33.92699 -118.70453 6367 ft 281 kts 266°
2026-04-23 22:38 33.92516 -118.72780 6986 ft 279 kts 266°
2026-04-23 22:38 33.92338 -118.75094 7621 ft 276 kts 266°
2026-04-23 22:38 33.92159 -118.77393 8229 ft 275 kts 267°
2026-04-23 22:38 33.91981 -118.79665 8897 ft 273 kts 266°
2026-04-23 22:39 33.91802 -118.81947 9456 ft 274 kts 266°
2026-04-23 22:39 33.91728 -118.84197 10032 ft 274 kts 271°
2026-04-23 22:39 33.91781 -118.86531 10348 ft 284 kts 273°
2026-04-23 22:39 33.91858 -118.88954 10579 ft 296 kts 273°
2026-04-23 22:40 33.91938 -118.91497 10827 ft 308 kts 273°
2026-04-23 22:40 33.92019 -118.94129 11073 ft 320 kts 272°
2026-04-23 22:40 33.92200 -118.99667 11563 ft 341 kts 275°
2026-04-23 22:41 33.92740 -119.02478 11764 ft 351 kts 293°
2026-04-23 22:41 33.93936 -119.05081 11996 ft 361 kts 301°
2026-04-23 22:41 33.95287 -119.07662 12316 ft 367 kts 301°
2026-04-23 22:41 33.96663 -119.10280 12776 ft 369 kts 301°
2026-04-23 22:42 33.98030 -119.12901 13231 ft 371 kts 300°
2026-04-23 22:42 33.98611 -119.14019 13438 ft 371 kts 300°
2026-04-23 22:42 33.99994 -119.16660 13888 ft 373 kts 302°
2026-04-23 22:42 34.01659 -119.19071 14254 ft 379 kts 314°
2026-04-23 22:43 34.03744 -119.21066 14527 ft 387 kts 321°
2026-04-23 22:43 34.05955 -119.22953 14824 ft 391 kts 322°
2026-04-23 22:43 34.08184 -119.24841 15254 ft 392 kts 322°
2026-04-23 22:43 34.10404 -119.26727 15734 ft 390 kts 321°
2026-04-23 22:44 34.12622 -119.28630 16124 ft 392 kts 321°
2026-04-23 22:44 34.14849 -119.30544 16486 ft 394 kts 321°
2026-04-23 22:44 34.17089 -119.32472 16869 ft 396 kts 320°
2026-04-23 22:44 34.19340 -119.34410 17251 ft 398 kts 320°
2026-04-23 22:45 34.21600 -119.36360 17615 ft 401 kts 320°
2026-04-23 22:45 34.23886 -119.38334 17885 ft 405 kts 320°
2026-04-23 22:45 34.26183 -119.40318 18294 ft 407 kts 320°
2026-04-23 22:45 34.28462 -119.42287 18614 ft 409 kts 320°
2026-04-23 22:46 34.30788 -119.44299 18909 ft 411 kts 320°
2026-04-23 22:46 34.33114 -119.46312 19244 ft 413 kts 320°
2026-04-23 22:46 34.35458 -119.48342 19548 ft 415 kts 320°